Location: Kumla
(59.1265°N, 15.1401°E)
Time: 17:27:22
(UTC+01:00)

A-11 Canister half - Pass Details

Date: 11 December 2023
Orbit: 1512 x 1687 km, 47.2° (Epoch: 25 February)

Event Time Altitude Azimuth Distance (km) Brightness Sun altitude
Rises 00:39:51 0° 242° (WSW) 4,734 - -52.9°
Reaches altitude 10° 00:43:06 10° 236° (SW) 3,774 - -52.7°
Maximum altitude 00:51:47 40° 171° (S) 2,219 - -52.3°
Drops below altitude 10° 01:00:45 10° 106° (ESE) 3,902 - -51.8°
Exits shadow 01:01:42 - 104° (ESE) 4,175 11.3 -51.8°
Sets 01:04:10 0° 100° (E) 4,908 11.8 -51.7°
